Location: Azul
(36.7830°S, 59.8500°W)
Time: 23:56:09
(UTC-03:00)

STARS - Pass Details

Date: 29 October 2021
Orbit: 623 x 638 km, 98.2° (Epoch: 30 November)

Event Time Altitude Azimuth Distance (km) Brightness Sun altitude
Exits shadow 21:49:46 30° 140° (SE) 1,142 ? -25.0°
Drops below altitude 10° 21:52:39 10° 174° (S) 2,030 ? -25.4°
Sets 21:55:00 0° 182° (S) 2,944 ? -25.8°
